HULIANGWANG DIGUI-06

导读

HULIANWANG DIGUI-06(卫星互联网低轨06组卫星),是中国GW巨型卫星互联网星座的组网卫星,属于我国空天一体6G互联网建设的重要组成部分。该卫星于2024年12月16日发射进入预定轨道,运行于近地低轨轨道。作为GW星座的组网卫星,它将和其他卫星共同构建覆盖全球的卫星互联网,未来可支持手机直连卫星通信,提供低时延、大带宽的全球互联服务。

Basic Information
目录编号:
62328
目录名称:
HULIANWANG DIGUI-06
国际标识:
2024-240F
轨道中心:
EARTH
卫星名称:
HULIANWANG DIGUI-06
卫星全名:
HULIANGWANG DIGUI-06
卫星状态:
在轨 (已飞行547 天)
发射日期:
2024-12-16 UTC
国别 :
中国 (CN)
星等 :
--
Orbit Information
数据来源 国际轨道数据 AOE轨道数据
星历时间 2026-06-16T14:43:59+0800
5小时前
查看轨道信息
2026-06-16T11:00:00+0800
9小时前
查看轨道信息
半长轴 7546.07km 7546.071km
偏心率 0.0001476 0.0001217
轨道倾角 86.498° 86.498°
近地点辐角 104.995° 105.631°
升交点赤经 343.416° 343.466°
平近点角 255.134° 233.323°
近地点 1166.819km 1167.015km
远地点 1169.047km 1168.853km
周期 108.728分钟 108.728分钟
每日圈数 13.244073 13.244069
Detailed Information
使用方式:
暂无
2D Orbit Map
3D Orbit Map
Orbit Altitude Analysis Chart
Orbit Inclination Analysis Chart
Orbit Comprehensive Analysis Chart
View Comprehensive Chart